• în România
  • Lista ţărilor
  • Pe 7 zile
  • Temperatura apei
  • Hartă satelitară
  • Meteo pe hartă
  • Widget-uri
  • user-avatar
    Intrare

    Meteo pe oră la Korytnikovo

    Astăzi, 26 Septembrie, Miercuri

    Timp Temperatura Precipitaţii Vânt Presiune Umiditate
    00:00 +2°C° 0 mm 3 m/s 743 mmHg 79%
    01:00 +2°C° 0 mm 3 m/s 743 mmHg 79%
    02:00 +2°C° 0 mm 2 m/s 744 mmHg 82%
    03:00 +2°C° 0 mm 2 m/s 744 mmHg 84%
    04:00 0°C° 0 mm 3 m/s 744 mmHg 85%
    05:00 0°C° 0 mm 3 m/s 745 mmHg 86%
    06:00 +1°C° 0 mm 3 m/s 745 mmHg 84%
    07:00 +2°C° 0 mm 3 m/s 745 mmHg 82%
    08:00 +3°C° 0 mm 4 m/s 745 mmHg 79%
    09:00 +5°C° 0 mm 4 m/s 745 mmHg 72%
    10:00 +7°C° 0 mm 4 m/s 745 mmHg 66%
    11:00 +8°C° 0 mm 5 m/s 744 mmHg 60%
    12:00 +9°C° 0 mm 5 m/s 744 mmHg 58%
    13:00 +9°C° 0 mm 5 m/s 743 mmHg 56%
    14:00 +10°C° 0 mm 6 m/s 743 mmHg 54%
    15:00 +9°C° 0.1 mm 6 m/s 742 mmHg 60%
    16:00 +8°C° 0.1 mm 5 m/s 741 mmHg 65%
    17:00 +7°C° 0.1 mm 5 m/s 740 mmHg 70%
    18:00 +5°C° 0.9 mm 6 m/s 739 mmHg 75%
    19:00 +5°C° 0.9 mm 7 m/s 737 mmHg 80%
    20:00 +5°C° 0.9 mm 8 m/s 736 mmHg 85%
    21:00 +4°C° 1.2 mm 8 m/s 734 mmHg 86%
    22:00 +4°C° 1.2 mm 8 m/s 733 mmHg 86%
    23:00 +4°C° 1.2 mm 8 m/s 732 mmHg 86%

    Mâine, 27 Septembrie, Joi

    Timp Temperatura Precipitaţii Vânt Presiune Umiditate
    00:00 +5°C° 0.6 mm 8 m/s 731 mmHg 87%
    01:00 +5°C° 0.6 mm 8 m/s 730 mmHg 87%
    02:00 +5°C° 0.6 mm 8 m/s 729 mmHg 88%
    03:00 +6°C° 0.8 mm 7 m/s 729 mmHg 87%
    04:00 +6°C° 0.8 mm 7 m/s 729 mmHg 86%
    05:00 +7°C° 0.8 mm 6 m/s 728 mmHg 85%
    06:00 +7°C° 0.1 mm 6 m/s 729 mmHg 83%
    07:00 +7°C° 0.1 mm 6 m/s 729 mmHg 81%
    08:00 +5°C° 0.1 mm 7 m/s 730 mmHg 78%
    09:00 +6°C° 0.2 mm 7 m/s 730 mmHg 74%
    10:00 +6°C° 0.2 mm 8 m/s 730 mmHg 70%
    11:00 +7°C° 0.2 mm 8 m/s 731 mmHg 66%
    12:00 +7°C° 0.2 mm 8 m/s 731 mmHg 64%
    13:00 +7°C° 0.2 mm 8 m/s 732 mmHg 63%
    14:00 +7°C° 0.2 mm 8 m/s 732 mmHg 61%
    15:00 +8°C° 0.1 mm 7 m/s 732 mmHg 63%
    16:00 +7°C° 0.1 mm 6 m/s 733 mmHg 66%
    17:00 +7°C° 0.1 mm 5 m/s 733 mmHg 68%
    18:00 +6°C° 0 mm 5 m/s 733 mmHg 69%
    19:00 +6°C° 0 mm 5 m/s 734 mmHg 71%
    20:00 +5°C° 0 mm 5 m/s 734 mmHg 73%
    21:00 +5°C° 0 mm 4 m/s 734 mmHg 74%
    22:00 +5°C° 0 mm 4 m/s 734 mmHg 75%
    23:00 +5°C° 0 mm 4 m/s 735 mmHg 77%

    Poimâine, 28 Septembrie, Vineri

    Timp Temperatura Precipitaţii Vânt Presiune Umiditate
    00:00 +4°C° 0 mm 4 m/s 734 mmHg 78%
    01:00 +4°C° 0 mm 4 m/s 734 mmHg 80%
    02:00 +4°C° 0 mm 3 m/s 733 mmHg 81%
    03:00 +5°C° 0.8 mm 4 m/s 732 mmHg 84%
    04:00 +5°C° 0.8 mm 4 m/s 731 mmHg 87%
    05:00 +6°C° 0.8 mm 5 m/s 729 mmHg 90%
    06:00 +7°C° 1.4 mm 5 m/s 728 mmHg 91%
    07:00 +9°C° 1.4 mm 6 m/s 727 mmHg 91%
    08:00 +10°C° 1.4 mm 6 m/s 726 mmHg 91%
    09:00 +10°C° 1.6 mm 6 m/s 726 mmHg 90%
    10:00 +10°C° 1.6 mm 6 m/s 726 mmHg 89%
    11:00 +11°C° 1.6 mm 6 m/s 726 mmHg 89%
    12:00 +10°C° 0.5 mm 6 m/s 726 mmHg 83%
    13:00 +10°C° 0.5 mm 7 m/s 727 mmHg 78%
    14:00 +10°C° 0.5 mm 8 m/s 727 mmHg 73%
    15:00 +8°C° 0.2 mm 7 m/s 728 mmHg 76%
    16:00 +6°C° 0.2 mm 7 m/s 730 mmHg 79%
    17:00 +4°C° 0.2 mm 6 m/s 731 mmHg 83%
    18:00 +3°C° 0 mm 6 m/s 733 mmHg 83%
    19:00 +2°C° 0 mm 5 m/s 734 mmHg 83%
    20:00 +3°C° 0 mm 4 m/s 735 mmHg 83%
    21:00 +1°C° 0 mm 4 m/s 736 mmHg 83%
    22:00 +1°C° 0 mm 4 m/s 737 mmHg 83%
    23:00 +1°C° 0 mm 3 m/s 737 mmHg 83%

    29 Septembrie, Sâmbătă

    Timp Temperatura Precipitaţii Vânt Presiune Umiditate
    00:00 +1°C° 0 mm 3 m/s 738 mmHg 83%
    01:00 0°C° 0 mm 3 m/s 738 mmHg 84%
    02:00 0°C° 0 mm 3 m/s 739 mmHg 84%
    03:00 0°C° 0 mm 3 m/s 740 mmHg 84%
    04:00 0°C° 0 mm 3 m/s 740 mmHg 85%
    05:00 -1°C° 0 mm 3 m/s 741 mmHg 85%
    06:00 0°C° 0 mm 3 m/s 741 mmHg 80%
    07:00 0°C° 0 mm 4 m/s 742 mmHg 74%
    08:00 +1°C° 0 mm 4 m/s 742 mmHg 68%
    09:00 +3°C° 0 mm 4 m/s 743 mmHg 63%
    10:00 +4°C° 0 mm 4 m/s 743 mmHg 58%
    11:00 +5°C° 0 mm 4 m/s 744 mmHg 53%
    12:00 +5°C° 0 mm 4 m/s 744 mmHg 52%
    13:00 +6°C° 0 mm 4 m/s 744 mmHg 52%
    14:00 +6°C° 0 mm 4 m/s 744 mmHg 51%
    15:00 +5°C° 0 mm 3 m/s 744 mmHg 56%
    16:00 +4°C° 0 mm 3 m/s 745 mmHg 61%
    17:00 +4°C° 0 mm 2 m/s 745 mmHg 65%
    18:00 +3°C° 0 mm 2 m/s 746 mmHg 69%
    19:00 +2°C° 0 mm 2 m/s 746 mmHg 73%
    20:00 +2°C° 0 mm 1 m/s 746 mmHg 76%
    21:00 +2°C° 0 mm 1 m/s 747 mmHg 77%
    22:00 +2°C° 0 mm 1 m/s 747 mmHg 79%
    23:00 +1°C° 0 mm 1 m/s 747 mmHg 80%

    30 Septembrie, Duminică

    Timp Temperatura Precipitaţii Vânt Presiune Umiditate
    00:00 -1°C° 0 mm 2 m/s 747 mmHg 81%
    01:00 -1°C° 0 mm 2 m/s 747 mmHg 82%
    02:00 -1°C° 0 mm 2 m/s 747 mmHg 83%
    03:00 -1°C° 0 mm 2 m/s 747 mmHg 83%
    04:00 +1°C° 0 mm 2 m/s 747 mmHg 84%
    05:00 0°C° 0 mm 3 m/s 747 mmHg 84%
    06:00 +1°C° 0 mm 3 m/s 747 mmHg 81%
    07:00 +2°C° 0 mm 3 m/s 747 mmHg 78%
    08:00 +3°C° 0 mm 4 m/s 746 mmHg 75%
    09:00 +5°C° 0 mm 4 m/s 746 mmHg 70%
    10:00 +6°C° 0 mm 4 m/s 746 mmHg 66%
    11:00 +7°C° 0 mm 5 m/s 746 mmHg 61%
    12:00 +8°C° 0 mm 5 m/s 745 mmHg 62%
    13:00 +8°C° 0 mm 5 m/s 745 mmHg 63%
    14:00 +8°C° 0 mm 5 m/s 745 mmHg 64%
    15:00 +7°C° 0.2 mm 5 m/s 744 mmHg 69%
    16:00 +7°C° 0.2 mm 5 m/s 744 mmHg 74%
    17:00 +6°C° 0.2 mm 4 m/s 744 mmHg 79%
    18:00 +6°C° 0 mm 5 m/s 744 mmHg 80%
    19:00 +6°C° 0 mm 5 m/s 743 mmHg 80%
    20:00 +5°C° 0 mm 5 m/s 743 mmHg 81%
    21:00 +5°C° 0 mm 5 m/s 743 mmHg 81%
    22:00 +5°C° 0 mm 4 m/s 743 mmHg 82%
    23:00 +5°C° 0 mm 4 m/s 743 mmHg 83%

    1 Octombrie, Luni

    Timp Temperatura Precipitaţii Vânt Presiune Umiditate
    00:00 +5°C° 0 mm 4 m/s 743 mmHg 85%
    01:00 +5°C° 0 mm 4 m/s 743 mmHg 86%
    02:00 +5°C° 0 mm 4 m/s 743 mmHg 87%
    03:00 +5°C° 0 mm 4 m/s 743 mmHg 86%
    04:00 +5°C° 0 mm 4 m/s 743 mmHg 85%
    05:00 +5°C° 0 mm 3 m/s 743 mmHg 84%
    06:00 +6°C° 0 mm 4 m/s 743 mmHg 82%
    07:00 +6°C° 0 mm 4 m/s 743 mmHg 80%
    08:00 +6°C° 0 mm 4 m/s 743 mmHg 78%
    09:00 +7°C° 0 mm 4 m/s 744 mmHg 74%
    10:00 +8°C° 0 mm 4 m/s 744 mmHg 69%
    11:00 +9°C° 0 mm 5 m/s 744 mmHg 65%
    12:00 +10°C° 0 mm 5 m/s 744 mmHg 62%
    13:00 +12°C° 0 mm 4 m/s 744 mmHg 60%
    14:00 +12°C° 0 mm 4 m/s 743 mmHg 57%
    15:00 +11°C° 0 mm 4 m/s 743 mmHg 62%
    16:00 +10°C° 0 mm 3 m/s 743 mmHg 67%
    17:00 +9°C° 0 mm 2 m/s 743 mmHg 71%
    18:00 +8°C° 0 mm 2 m/s 743 mmHg 74%
    19:00 +7°C° 0 mm 2 m/s 744 mmHg 77%
    20:00 +6°C° 0 mm 2 m/s 744 mmHg 79%
    21:00 +6°C° 0 mm 2 m/s 744 mmHg 81%
    22:00 +5°C° 0 mm 2 m/s 744 mmHg 83%
    23:00 +5°C° 0 mm 2 m/s 744 mmHg 84%
    Arată mai mult